Torna al catalogo

SL-18 DEB

AttivoLEO
NORAD 22567·DEBRIS·🇷🇺 Russia

Lanciato Mar 25, 1993 da Plesetsk Cosmodrome

Loading…

Prossimi Passaggi (prossime 24 ore)

TLE

AggiornatoSource: Space-Track

Epoca: Sep 14, 2026, 02:33 UTC

1 22567U 93014C   26257.10679234  .00000884  00000-0  22703-3 0  9990
2 22567  75.7493 308.7425 0146214 302.8381  76.5351 14.44926342746835

Traccia SL-18 DEB in tempo reale con AllMySat

Download on the App Store